EW6167 Weather Reports


Display with metric or nautical units.
time (UTC)temp
F
wind
direction
speed
MPH
gust
MPH
rain 1hr
in
rain 24hr
in
rain mn
in
humidity
%
barometer
mb
20260504205517 57 332 15.0 0.0 0.00 0.00 0.00 41 1006.8
20260504205034 56 5 15.0 0.0 0.00 0.00 0.00 42 1006.8
20260504204548 57 16 15.0 0.0 0.00 0.00 0.00 40 1006.8
20260504204002 56 349 14.0 0.0 0.00 0.00 0.00 42 1006.7
20260504203517 57 342 13.0 0.0 0.00 0.00 0.00 41 1006.7
20260504203034 56 340 12.0 0.0 0.00 0.00 0.00 40 1006.7
20260504202550 56 348 11.0 0.0 0.00 0.00 0.00 41 1006.8
20260504202001 55 333 10.0 0.0 0.00 0.00 0.00 41 1006.8
20260504201519 55 332 12.0 0.0 0.00 0.00 0.00 40 1006.9
20260504201036 56 16 12.0 0.0 0.00 0.00 0.00 42 1006.8
20260504200554 56 338 13.0 0.0 0.00 0.00 0.00 40 1006.8
20260504200012 56 337 12.0 0.0 0.00 0.00 0.00 43 1006.9
20260504195525 56 317 12.0 0.0 0.00 0.00 0.00 41 1006.8
20260504195042 56 360 12.0 0.0 0.00 0.00 0.00 40 1006.9
20260504194606 56 346 12.0 0.0 0.00 0.00 0.00 41 1006.9
20260504194010 56 343 11.0 0.0 0.00 0.00 0.00 41 1006.8
20260504193523 55 300 11.0 0.0 0.00 0.00 0.00 44 1006.9
20260504193043 55 339 10.0 0.0 0.00 0.00 0.00 44 1006.9
20260504192558 54 309 10.0 0.0 0.00 0.00 0.00 43 1007.0
20260504192010 54 313 9.0 0.0 0.00 0.00 0.00 41 1007.1
20260504191528 54 9 8.0 0.0 0.00 0.00 0.00 43 1007.2
20260504191044 54 5 7.0 0.0 0.00 0.00 0.00 44 1007.3
20260504190559 53 17 8.0 0.0 0.00 0.00 0.00 45 1007.3
20260504190009 53 337 10.0 0.0 0.00 0.00 0.00 43 1007.4
20260504185526 53 321 11.0 0.0 0.00 0.00 0.00 44 1007.6
20260504185047 53 337 9.0 0.0 0.00 0.00 0.00 44 1007.6
20260504184602 53 15 9.0 0.0 0.00 0.00 0.00 46 1007.6
20260504184014 53 360 9.0 0.0 0.00 0.00 0.00 46 1007.7
20260504183528 52 355 10.0 0.0 0.00 0.00 0.00 46 1007.7
20260504183050 52 360 10.0 0.0 0.00 0.00 0.00 47 1007.8
20260504182604 52 327 10.0 0.0 0.00 0.00 0.00 47 1007.8
20260504182012 51 334 10.0 0.0 0.00 0.00 0.00 49 1007.9
20260504181529 51 355 10.0 0.0 0.00 0.00 0.00 47 1007.9
20260504181049 50 341 11.0 0.0 0.00 0.00 0.00 47 1008.0
20260504180607 51 310 11.0 0.0 0.00 0.00 0.00 49 1008.0
20260504180019 50 313 10.0 0.0 0.00 0.00 0.00 49 1008.1
20260504175534 50 301 10.0 0.0 0.00 0.00 0.00 49 1008.2
20260504175051 50 331 9.0 0.0 0.00 0.00 0.00 50 1008.2
20260504174509 50 355 9.0 0.0 0.00 0.00 0.00 48 1008.5
20260504174018 50 21 9.0 0.0 0.00 0.00 0.00 48 1008.5
20260504173534 50 340 8.0 0.0 0.00 0.00 0.00 50 1008.3
20260504173051 49 338 8.0 0.0 0.00 0.00 0.00 50 1008.4
20260504172603 49 321 9.0 0.0 0.00 0.00 0.00 49 1008.4
20260504172014 49 311 10.0 0.0 0.00 0.00 0.00 51 1008.4
20260504171541 49 329 10.0 0.0 0.00 0.00 0.00 50 1008.5
20260504171042 49 322 11.0 0.0 0.00 0.00 0.00 51 1008.6
20260504170558 48 321 12.0 0.0 0.00 0.00 0.00 51 1008.5
20260504151052 45 344 10.0 0.0 0.00 0.00 0.00 55 1008.9
20260504150502 45 333 11.0 0.0 0.00 0.00 0.00 54 1008.9
20260504141026 43 327 17.0 0.0 0.00 0.00 0.00 57 1009.1
20260504140544 43 316 16.0 0.0 0.00 0.00 0.00 57 1009.0
20260504130542 41 336 8.0 0.0 0.00 0.00 0.00 62 1008.5
20260504120105 36 96 3.0 0.0 0.00 0.00 0.00 74 1007.7
20260504110520 36 179 5.0 0.0 0.00 0.00 0.00 78 1006.3
20260504100523 34 182 5.0 0.0 0.00 0.00 0.00 79 1006.3
20260504081552 36 182 5.0 0.0 0.00 0.00 0.00 76 1006.5
20260504081003 36 192 4.0 0.0 0.00 0.00 0.00 76 1006.6
20260504080521 36 188 4.0 0.0 0.00 0.00 0.00 76 1006.5
20260504050508 43 181 5.0 0.0 0.00 0.00 0.00 63 1006.0
20260504050021 43 197 5.0 0.0 0.00 0.00 0.00 63 1006.0
20260504045541 42 141 5.0 0.0 0.00 0.00 0.00 65 1006.0
20260504045059 43 215 6.0 0.0 0.00 0.00 0.00 65 1005.9
20260504044518 43 219 6.0 0.0 0.00 0.00 0.00 66 1005.9
20260504044025 42 228 6.0 0.0 0.00 0.00 0.00 67 1006.0
20260504043544 42 199 6.0 0.0 0.00 0.00 0.00 68 1005.7
20260504043106 42 194 6.0 0.0 0.00 0.00 0.00 69 1005.6
20260504042521 42 189 5.0 0.0 0.00 0.00 0.00 69 1005.6
20260504042039 41 186 5.0 0.0 0.00 0.00 0.00 70 1005.7
20260504041556 41 190 5.0 0.0 0.00 0.00 0.00 71 1005.7
20260504041011 41 190 5.0 0.0 0.00 0.00 0.00 69 1005.7
20260504040532 42 176 5.0 0.0 0.00 0.00 0.00 66 1005.6
20260504040045 43 176 5.0 0.0 0.00 0.00 0.00 62 1005.6
20260504035602 45 162 5.0 0.0 0.00 0.00 0.00 60 1005.6
20260504035007 44 162 4.0 0.0 0.00 0.00 0.00 61 1005.6
20260504034524 44 162 5.0 0.0 0.00 0.00 0.00 62 1005.5
20260504034038 45 162 5.0 0.0 0.00 0.00 0.00 61 1005.5
20260504033553 46 162 6.0 0.0 0.00 0.00 0.00 59 1005.4
20260504033013 46 162 5.0 0.0 0.00 0.00 0.00 59 1005.3
20260504032526 46 161 5.0 0.0 0.00 0.00 0.00 58 1005.2
20260504032044 47 180 4.0 0.0 0.00 0.00 0.00 57 1005.3
20260504031558 49 180 5.0 0.0 0.00 0.00 0.00 54 1005.2
20260504031004 51 180 4.0 0.0 0.00 0.00 0.00 50 1005.2
20260504030521 54 187 3.0 0.0 0.00 0.00 0.00 45 1005.1
20260504030040 55 190 2.0 0.0 0.00 0.00 0.00 40 1005.1
20260504025559 56 13 2.0 0.0 0.00 0.00 0.00 40 1005.0
20260504025008 57 13 1.0 0.0 0.00 0.00 0.00 38 1005.0
20260504024523 58 13 0.0 0.0 0.00 0.00 0.00 38 1004.9
20260504024042 58 13 0.0 0.0 0.00 0.00 0.00 36 1004.9
20260504023555 59 13 1.0 0.0 0.00 0.00 0.00 36 1004.9
20260504023009 60 13 2.0 0.0 0.00 0.00 0.00 34 1004.9
20260504022525 60 13 2.0 0.0 0.00 0.00 0.00 34 1004.9
20260504022044 60 13 2.0 0.0 0.00 0.00 0.00 35 1004.7
20260504021600 61 13 2.0 0.0 0.00 0.00 0.00 34 1004.7
20260504021015 61 13 3.0 0.0 0.00 0.00 0.00 34 1004.6
20260504020536 62 13 4.0 0.0 0.00 0.00 0.00 33 1004.6
20260504020050 62 13 4.0 0.0 0.00 0.00 0.00 32 1004.6
20260504015506 63 13 4.0 0.0 0.00 0.00 0.00 29 1004.6
20260504015026 63 13 4.0 0.0 0.00 0.00 0.00 28 1004.7
20260504014546 64 13 4.0 0.0 0.00 0.00 0.00 28 1004.7
20260504014104 64 13 4.0 0.0 0.00 0.00 0.00 27 1004.7
20260504013519 65 15 4.0 0.0 0.00 0.00 0.00 26 1004.8
20260504013047 64 12 4.0 0.0 0.00 0.00 0.00 24 1004.9
20260504012554 64 24 3.0 0.0 0.00 0.00 0.00 27 1004.8
20260504012006 64 5 3.0 0.0 0.00 0.00 0.00 27 1005.0
20260504011526 64 5 4.0 0.0 0.00 0.00 0.00 26 1004.9
20260504011040 63 355 4.0 0.0 0.00 0.00 0.00 29 1005.0
20260504010503 62 355 5.0 0.0 0.00 0.00 0.00 31 1005.0
20260504010018 62 355 6.0 0.0 0.00 0.00 0.00 28 1005.1
20260504005535 63 355 7.0 0.0 0.00 0.00 0.00 26 1005.1
20260504005050 64 355 8.0 0.0 0.00 0.00 0.00 25 1005.1
20260504004502 65 350 10.0 0.0 0.00 0.00 0.00 25 1005.2
20260504004015 66 346 9.0 0.0 0.00 0.00 0.00 23 1005.2
20260504003534 66 331 8.0 0.0 0.00 0.00 0.00 25 1005.2
20260504003056 65 350 7.0 0.0 0.00 0.00 0.00 26 1005.3
20260504002512 64 16 6.0 0.0 0.00 0.00 0.00 24 1005.4
20260504002026 64 21 7.0 0.0 0.00 0.00 0.00 25 1005.5
20260504001548 64 342 8.0 0.0 0.00 0.00 0.00 25 1005.5
20260504001001 65 9 9.0 0.0 0.00 0.00 0.00 24 1005.5
20260504000516 66 344 9.0 0.0 0.00 0.00 0.00 22 1005.5
20260504000032 66 344 9.0 0.0 0.00 0.00 0.00 24 1005.5
20260503235544 66 355 7.0 0.0 0.00 0.00 0.00 23 1005.7
20260503235105 66 9 8.0 0.0 0.00 0.00 0.00 22 1005.7
20260503234516 65 329 9.0 0.0 0.00 0.00 0.00 23 1005.7
20260503234032 65 324 8.0 0.0 0.00 0.00 0.00 23 1005.7
20260503233548 65 320 7.0 0.0 0.00 0.00 0.00 23 1005.8
20260503233002 66 345 7.0 0.0 0.00 0.00 0.00 23 1005.7
20260503232520 66 321 9.0 0.0 0.00 0.00 0.00 23 1005.8
20260503232037 66 318 9.0 0.0 0.00 0.00 0.00 24 1005.9
20260503231552 65 303 9.0 0.0 0.00 0.00 0.00 24 1006.0
20260503231003 65 310 9.0 0.0 0.00 0.00 0.00 24 1006.0
20260503230524 65 323 9.0 0.0 0.00 0.00 0.00 25 1006.0
20260503230040 65 329 10.0 0.0 0.00 0.00 0.00 25 1006.1
20260503225554 65 337 10.0 0.0 0.00 0.00 0.00 24 1006.1
20260503225014 65 325 9.0 0.0 0.00 0.00 0.00 24 1006.1
20260503224533 65 316 9.0 0.0 0.00 0.00 0.00 24 1006.1
20260503224047 65 319 10.0 0.0 0.00 0.00 0.00 23 1006.2
20260503223609 65 337 10.0 0.0 0.00 0.00 0.00 24 1006.3
20260503223015 65 24 8.0 0.0 0.00 0.00 0.00 23 1006.3
20260503222530 66 5 8.0 0.0 0.00 0.00 0.00 24 1006.5
20260503222044 66 339 7.0 0.0 0.00 0.00 0.00 23 1006.5
20260503221603 66 344 10.0 0.0 0.00 0.00 0.00 24 1006.6
20260503221011 67 355 10.0 0.0 0.00 0.00 0.00 23 1006.8
20260503220527 66 9 9.0 0.0 0.00 0.00 0.00 26 1006.8
20260503220044 65 306 9.0 0.0 0.00 0.00 0.00 24 1006.9
20260503215559 65 286 9.0 0.0 0.00 0.00 0.00 25 1006.9
20260503215013 64 338 7.0 0.0 0.00 0.00 0.00 26 1006.9
20260503214530 64 19 7.0 0.0 0.00 0.00 0.00 26 1007.0
20260503214049 64 9 8.0 0.0 0.00 0.00 0.00 25 1007.1
20260503213506 65 331 6.0 0.0 0.00 0.00 0.00 24 1007.1
20260503213020 65 340 5.0 0.0 0.00 0.00 0.00 24 1007.3
20260503212536 65 326 7.0 0.0 0.00 0.00 0.00 24 1007.5
20260503212052 65 333 7.0 0.0 0.00 0.00 0.00 25 1007.5
20260503211506 65 340 6.0 0.0 0.00 0.00 0.00 27 1007.5
20260503211023 64 48 5.0 0.0 0.00 0.00 0.00 24 1007.3
20260503210541 64 44 6.0 0.0 0.00 0.00 0.00 25 1007.5
20260503210058 64 337 7.0 0.0 0.00 0.00 0.00 27 1007.4